This demonstration page uses our WeatherBlox Daily Observations layout. Learn more.

Left ArrowRight Arrow

38.89511, -77.03637

Hourly Observations for November 21, 2015

Temp ( °F °C ) Dew Point ( °F °C ) Humidity (%) Winds ( mph kmh ) Pressure ( in mb ) Visibility ( mi km ) Precip ( " mm )
12:52 am 00:52 Partly Cloudy 43 6.1 26 -3.3 51 51 N 5 7 30.27 1025 10 16 N/A
1:52 am 01:52 Partly Cloudy 41 5 24 -4.4 51 51 N N/A 30.27 1025 10 16 N/A
2:52 am 02:52 Partly Cloudy 39 3.9 24 -4.4 55 55 NNW 3 6 30.27 1025 10 16 N/A
3:52 am 03:52 Partly Cloudy 40 4.4 22 -5.6 49 49 NNW 5 7 30.27 1025 10 16 N/A
4:52 am 04:52 Mostly Clear 39 3.9 28 -2.2 65 65 N 5 7 30.25 1025 10 16 N/A
5:52 am 05:52 Partly Cloudy 40 4.4 23 -5 51 51 N N/A 30.25 1024 10 16 N/A
6:52 am 06:52 Partly Cloudy 39 3.9 25 -3.9 57 57 N 3 6 30.27 1025 10 16 N/A
7:52 am 07:52 Partly Cloudy 42 5.6 29 -1.7 60 60 N N/A 30.28 1025 10 16 N/A
8:52 am 08:52 Mostly Sunny 44 6.7 27 -2.8 51 51 ENE 6 9 30.28 1026 10 16 N/A
9:52 am 09:52 Partly Cloudy 48 8.9 28 -2.2 46 46 NE 8 13 30.28 1025 10 16 N/A
10:52 am 10:52 Mostly Cloudy 51 10.6 29 -1.7 43 43 ENE 12 19 30.24 1024 10 16 N/A
11:52 am 11:52 Mostly Cloudy 52 11.1 31 -0.6 45 45 SE 7 11 30.19 1022 10 16 N/A
12:52 pm 12:52 Mostly Cloudy 54 12.2 34 1.1 47 47 E 6 9 30.14 1021 10 16 N/A
1:52 pm 13:52 Mostly Cloudy 55 12.8 38 3.3 53 53 SE 8 13 30.11 1020 10 16 N/A
2:52 pm 14:52 Mostly Cloudy 54 12.2 39 3.9 57 57 E 10 17 30.09 1019 10 16 N/A
3:52 pm 15:52 Mostly Cloudy 54 12.2 41 5 62 62 E 9 15 30.06 1018 10 16 N/A
4:52 pm 16:52 Mostly Cloudy 52 11.1 41 5 66 66 ESE 10 17 30.04 1017 10 16 N/A
5:52 pm 17:52 Mostly Cloudy 51 10.6 41 5 69 69 ESE 12 19 30.00 1016 10 16 N/A
6:52 pm 18:52 Mostly Cloudy 50 10 41 5 71 71 N N/A 30.01 1016 10 16 N/A
7:52 pm 19:52 Mostly Cloudy 50 10 41 5 71 71 SSE 3 6 30.00 1016 10 16 N/A
8:52 pm 20:52 Partly Cloudy 48 8.9 42 5.6 80 80 S 7 11 29.99 1016 10 16 N/A
9:52 pm 21:52 Mostly Cloudy 49 9.4 44 6.7 83 83 SSW 8 13 29.96 1015 10 16 N/A
10:22 pm 22:22 Cloudy 48 9 45 7 87 87 SSW 6 9 29.97 1015 10 16 N/A
10:52 pm 22:52 Cloudy 49 9.4 44 6.7 83 83 S 6 9 29.93 1014 10 16 N/A
11:52 pm 23:52 Cloudy 48 8.9 45 7.2 89 89 S 9 15 29.91 1013 10 16 N/A

Powered by AerisWeather